owner,sensor,date,latitude,longitude,vertical_datum,wind_speed,wind_to_direction,wind_speed_of_gust,qcFlag 
TCOON,ioos:station:TCOON:005:1,2017-05-01T00:00:00Z,27.6346,-97.2370,0.0,2.9,44.0,4.1,'11111222,11111222,11111222' 
TCOON,ioos:station:TCOON:005:1,2017-05-01T00:06:00Z,27.6346,-97.2370,0.0,2.9,51.0,3.6,'11111222,11111222,11111222' 
TCOON,ioos:station:TCOON:005:1,2017-05-01T00:12:00Z,27.6346,-97.2370,0.0,3.4,49.0,3.6,'11111222,11111222,11111222' 
TCOON,ioos:station:TCOON:005:1,2017-05-01T00:18:00Z,27.6346,-97.2370,0.0,3.4,49.0,3.6,'1111122,1111122,1111122' 
TCOON,ioos:station:TCOON:005:1,2017-05-01T00:24:00Z,27.6346,-97.2370,0.0,2.7,49.0,3.2,'11111222,11111222,11111222' 
TCOON,ioos:station:TCOON:005:1,2017-05-01T00:30:00Z,27.6346,-97.2370,0.0,5.0,89.0,6.4,'11111222,11111222,11111222' 
TCOON,ioos:station:TCOON:005:1,2017-05-01T00:36:00Z,27.6346,-97.2370,0.0,5.1,82.0,6.3,'11111222,11111222,11111222' 
TCOON,ioos:station:TCOON:005:1,2017-05-01T00:42:00Z,27.6346,-97.2370,0.0,6.0,84.0,6.7,'11111222,11111222,11111222' 
TCOON,ioos:station:TCOON:005:1,2017-05-01T00:48:00Z,27.6346,-97.2370,0.0,5.4,79.0,7.0,'11111222,11111222,11111222' 
TCOON,ioos:station:TCOON:005:1,2017-05-01T00:54:00Z,27.6346,-97.2370,0.0,5.9,85.0,6.7,'11111222,11111222,11111222' 
TCOON,ioos:station:TCOON:005:1,2017-05-01T01:00:00Z,27.6346,-97.2370,0.0,4.3,97.0,5.5,'11111222,11111222,11111222' 
TCOON,ioos:station:TCOON:005:1,2017-05-01T01:06:00Z,27.6346,-97.2370,0.0,5.1,96.0,5.9,'11111222,11111222,11111222' 
TCOON,ioos:station:TCOON:005:1,2017-05-01T01:12:00Z,27.6346,-97.2370,0.0,5.0,99.0,6.1,'11111222,11111222,11111222' 
TCOON,ioos:station:TCOON:005:1,2017-05-01T01:18:00Z,27.6346,-97.2370,0.0,5.0,99.0,6.1,'1111122,1111122,1111122' 
TCOON,ioos:station:TCOON:005:1,2017-05-01T01:24:00Z,27.6346,-97.2370,0.0,4.8,98.0,6.1,'11111222,11111222,11111222' 
TCOON,ioos:station:TCOON:005:1,2017-05-01T01:30:00Z,27.6346,-97.2370,0.0,4.6,98.0,5.7,'11111222,11111222,11111222' 
TCOON,ioos:station:TCOON:005:1,2017-05-01T01:36:00Z,27.6346,-97.2370,0.0,5.2,96.0,6.4,'11111222,11111222,11111222' 
TCOON,ioos:station:TCOON:005:1,2017-05-01T01:42:00Z,27.6346,-97.2370,0.0,5.2,98.0,6.2,'11111222,11111222,11111222' 
TCOON,ioos:station:TCOON:005:1,2017-05-01T01:48:00Z,27.6346,-97.2370,0.0,5.0,97.0,6.3,'11111222,11111222,11111222' 
TCOON,ioos:station:TCOON:005:1,2017-05-01T01:54:00Z,27.6346,-97.2370,0.0,5.2,95.0,7.0,'11111222,11111222,11111222' 
TCOON,ioos:station:TCOON:005:1,2017-05-01T02:00:00Z,27.6346,-97.2370,0.0,6.6,107.0,7.4,'11111222,11111222,11111222' 
TCOON,ioos:station:TCOON:005:1,2017-05-01T02:06:00Z,27.6346,-97.2370,0.0,5.6,109.0,7.0,'11111222,11111222,11111222' 
TCOON,ioos:station:TCOON:005:1,2017-05-01T02:12:00Z,27.6346,-97.2370,0.0,6.0,112.0,7.5,'11111222,11111222,11111222' 
TCOON,ioos:station:TCOON:005:1,2017-05-01T02:18:00Z,27.6346,-97.2370,0.0,6.0,112.0,7.5,'1111122,1111122,1111122' 
TCOON,ioos:station:TCOON:005:1,2017-05-01T02:24:00Z,27.6346,-97.2370,0.0,5.7,112.0,6.8,'11111222,11111222,11111222' 
TCOON,ioos:station:TCOON:005:1,2017-05-01T02:30:00Z,27.6346,-97.2370,0.0,5.3,108.0,6.4,'11111222,11111222,11111222' 
TCOON,ioos:station:TCOON:005:1,2017-05-01T02:36:00Z,27.6346,-97.2370,0.0,5.9,108.0,7.1,'11111222,11111222,11111222' 
TCOON,ioos:station:TCOON:005:1,2017-05-01T02:42:00Z,27.6346,-97.2370,0.0,4.9,119.0,6.5,'11111222,11111222,11111222' 
TCOON,ioos:station:TCOON:005:1,2017-05-01T02:48:00Z,27.6346,-97.2370,0.0,6.0,113.0,7.2,'11111222,11111222,11111222' 
TCOON,ioos:station:TCOON:005:1,2017-05-01T02:54:00Z,27.6346,-97.2370,0.0,6.4,117.0,7.5,'11111222,11111222,11111222' 
TCOON,ioos:station:TCOON:005:1,2017-05-01T03:00:00Z,27.6346,-97.2370,0.0,5.8,114.0,7.3,'11111222,11111222,11111222' 
TCOON,ioos:station:TCOON:005:1,2017-05-01T03:06:00Z,27.6346,-97.2370,0.0,5.2,117.0,6.9,'11111222,11111222,11111222' 
TCOON,ioos:station:TCOON:005:1,2017-05-01T03:12:00Z,27.6346,-97.2370,0.0,5.1,124.0,6.7,'11111222,11111222,11111222' 
TCOON,ioos:station:TCOON:005:1,2017-05-01T03:18:00Z,27.6346,-97.2370,0.0,5.1,124.0,6.7,'1111122,1111122,1111122' 
TCOON,ioos:station:TCOON:005:1,2017-05-01T03:24:00Z,27.6346,-97.2370,0.0,5.6,123.0,6.9,'11111222,11111222,11111222' 
TCOON,ioos:station:TCOON:005:1,2017-05-01T03:30:00Z,27.6346,-97.2370,0.0,4.9,129.0,6.3,'11111222,11111222,11111222' 
TCOON,ioos:station:TCOON:005:1,2017-05-01T03:36:00Z,27.6346,-97.2370,0.0,4.0,125.0,5.9,'11111222,11111222,11111222' 
TCOON,ioos:station:TCOON:005:1,2017-05-01T03:42:00Z,27.6346,-97.2370,0.0,5.2,125.0,6.0,'11111222,11111222,11111222' 
TCOON,ioos:station:TCOON:005:1,2017-05-01T03:48:00Z,27.6346,-97.2370,0.0,4.3,123.0,6.3,'11111222,11111222,11111222' 
TCOON,ioos:station:TCOON:005:1,2017-05-01T03:54:00Z,27.6346,-97.2370,0.0,4.2,126.0,5.8,'11111222,11111222,11111222' 
TCOON,ioos:station:TCOON:005:1,2017-05-01T04:00:00Z,27.6346,-97.2370,0.0,3.5,123.0,5.1,'11111222,11111222,11111222' 
TCOON,ioos:station:TCOON:005:1,2017-05-01T04:06:00Z,27.6346,-97.2370,0.0,4.5,119.0,5.2,'11111222,11111222,11111222' 
TCOON,ioos:station:TCOON:005:1,2017-05-01T04:12:00Z,27.6346,-97.2370,0.0,4.2,128.0,5.8,'11111222,11111222,11111222' 
TCOON,ioos:station:TCOON:005:1,2017-05-01T04:18:00Z,27.6346,-97.2370,0.0,4.0,124.0,5.2,'11111222,11111222,11111222' 
TCOON,ioos:station:TCOON:005:1,2017-05-01T04:24:00Z,27.6346,-97.2370,0.0,4.0,124.0,5.2,'1111122,1111122,1111122' 
TCOON,ioos:station:TCOON:005:1,2017-05-01T04:30:00Z,27.6346,-97.2370,0.0,3.8,121.0,5.7,'11111222,11111222,11111222' 
TCOON,ioos:station:TCOON:005:1,2017-05-01T04:36:00Z,27.6346,-97.2370,0.0,3.8,127.0,5.6,'11111222,11111222,11111222' 
TCOON,ioos:station:TCOON:005:1,2017-05-01T04:42:00Z,27.6346,-97.2370,0.0,4.2,131.0,5.1,'11111222,11111222,11111222' 
TCOON,ioos:station:TCOON:005:1,2017-05-01T04:48:00Z,27.6346,-97.2370,0.0,4.1,125.0,5.8,'11111222,11111222,11111222' 
TCOON,ioos:station:TCOON:005:1,2017-05-01T04:54:00Z,27.6346,-97.2370,0.0,4.5,127.0,5.1,'11111222,11111222,11111222' 
TCOON,ioos:station:TCOON:005:1,2017-05-01T05:00:00Z,27.6346,-97.2370,0.0,3.9,130.0,4.8,'11111222,11111222,11111222' 
TCOON,ioos:station:TCOON:005:1,2017-05-01T05:06:00Z,27.6346,-97.2370,0.0,3.3,138.0,4.8,'11111222,11111222,11111222' 
TCOON,ioos:station:TCOON:005:1,2017-05-01T05:12:00Z,27.6346,-97.2370,0.0,4.0,133.0,5.7,'11111222,11111222,11111222' 
TCOON,ioos:station:TCOON:005:1,2017-05-01T05:18:00Z,27.6346,-97.2370,0.0,4.0,133.0,5.7,'1111122,1111122,1111122' 
TCOON,ioos:station:TCOON:005:1,2017-05-01T05:24:00Z,27.6346,-97.2370,0.0,3.2,133.0,4.3,'11111222,11111222,11111222' 
TCOON,ioos:station:TCOON:005:1,2017-05-01T05:30:00Z,27.6346,-97.2370,0.0,3.0,131.0,4.0,'11111222,11111222,11111222' 
TCOON,ioos:station:TCOON:005:1,2017-05-01T05:36:00Z,27.6346,-97.2370,0.0,3.5,137.0,4.5,'11111222,11111222,11111222' 
TCOON,ioos:station:TCOON:005:1,2017-05-01T05:42:00Z,27.6346,-97.2370,0.0,2.9,126.0,4.0,'11111222,11111222,11111222' 
TCOON,ioos:station:TCOON:005:1,2017-05-01T05:48:00Z,27.6346,-97.2370,0.0,2.6,127.0,4.2,'11111222,11111222,11111222' 
TCOON,ioos:station:TCOON:005:1,2017-05-01T05:54:00Z,27.6346,-97.2370,0.0,2.6,134.0,3.7,'11111222,11111222,11111222' 
TCOON,ioos:station:TCOON:005:1,2017-05-01T06:00:00Z,27.6346,-97.2370,0.0,2.3,129.0,3.3,'11111222,11111222,11111222' 
TCOON,ioos:station:TCOON:005:1,2017-05-01T06:06:00Z,27.6346,-97.2370,0.0,1.9,128.0,2.9,'11111222,11111222,11111222' 
TCOON,ioos:station:TCOON:005:1,2017-05-01T06:12:00Z,27.6346,-97.2370,0.0,1.9,136.0,2.4,'11111222,11111222,11111222' 
TCOON,ioos:station:TCOON:005:1,2017-05-01T06:18:00Z,27.6346,-97.2370,0.0,1.9,136.0,2.4,'1111122,1111122,1111122' 
TCOON,ioos:station:TCOON:005:1,2017-05-01T06:24:00Z,27.6346,-97.2370,0.0,2.1,142.0,3.0,'11111222,11111222,11111222' 
TCOON,ioos:station:TCOON:005:1,2017-05-01T06:30:00Z,27.6346,-97.2370,0.0,2.3,135.0,3.1,'11111222,11111222,11111222' 
TCOON,ioos:station:TCOON:005:1,2017-05-01T06:36:00Z,27.6346,-97.2370,0.0,2.4,138.0,3.0,'11111222,11111222,11111222' 
TCOON,ioos:station:TCOON:005:1,2017-05-01T06:42:00Z,27.6346,-97.2370,0.0,2.2,141.0,2.9,'11111222,11111222,11111222' 
TCOON,ioos:station:TCOON:005:1,2017-05-01T06:48:00Z,27.6346,-97.2370,0.0,2.1,126.0,2.9,'11111222,11111222,11111222' 
TCOON,ioos:station:TCOON:005:1,2017-05-01T06:54:00Z,27.6346,-97.2370,0.0,1.7,134.0,2.4,'11111222,11111222,11111222' 
TCOON,ioos:station:TCOON:005:1,2017-05-01T07:00:00Z,27.6346,-97.2370,0.0,2.2,137.0,2.6,'11111222,11111222,11111222' 
TCOON,ioos:station:TCOON:005:1,2017-05-01T07:06:00Z,27.6346,-97.2370,0.0,2.0,133.0,2.6,'11111222,11111222,11111222' 
TCOON,ioos:station:TCOON:005:1,2017-05-01T07:12:00Z,27.6346,-97.2370,0.0,1.9,135.0,2.7,'11111222,11111222,11111222' 
TCOON,ioos:station:TCOON:005:1,2017-05-01T07:18:00Z,27.6346,-97.2370,0.0,1.9,135.0,2.7,'1111122,1111122,1111122' 
TCOON,ioos:station:TCOON:005:1,2017-05-01T07:24:00Z,27.6346,-97.2370,0.0,1.8,133.0,2.5,'11111222,11111222,11111222' 
TCOON,ioos:station:TCOON:005:1,2017-05-01T07:30:00Z,27.6346,-97.2370,0.0,1.9,143.0,2.4,'11111222,11111222,11111222' 
TCOON,ioos:station:TCOON:005:1,2017-05-01T07:36:00Z,27.6346,-97.2370,0.0,1.9,146.0,2.4,'11111222,11111222,11111222' 
TCOON,ioos:station:TCOON:005:1,2017-05-01T07:42:00Z,27.6346,-97.2370,0.0,1.5,152.0,2.7,'11111222,11111222,11111222' 
TCOON,ioos:station:TCOON:005:1,2017-05-01T07:48:00Z,27.6346,-97.2370,0.0,2.2,151.0,2.7,'11111222,11111222,11111222' 
TCOON,ioos:station:TCOON:005:1,2017-05-01T07:54:00Z,27.6346,-97.2370,0.0,2.4,143.0,3.0,'11111222,11111222,11111222' 
TCOON,ioos:station:TCOON:005:1,2017-05-01T08:00:00Z,27.6346,-97.2370,0.0,2.2,141.0,2.9,'11111222,11111222,11111222' 
TCOON,ioos:station:TCOON:005:1,2017-05-01T08:06:00Z,27.6346,-97.2370,0.0,2.0,148.0,2.8,'11111222,11111222,11111222' 
TCOON,ioos:station:TCOON:005:1,2017-05-01T08:12:00Z,27.6346,-97.2370,0.0,2.2,147.0,2.9,'11111222,11111222,11111222' 
TCOON,ioos:station:TCOON:005:1,2017-05-01T08:18:00Z,27.6346,-97.2370,0.0,2.2,140.0,2.7,'11111222,11111222,11111222' 
TCOON,ioos:station:TCOON:005:1,2017-05-01T08:24:00Z,27.6346,-97.2370,0.0,2.2,140.0,2.7,'1111122,1111122,1111122' 
TCOON,ioos:station:TCOON:005:1,2017-05-01T08:30:00Z,27.6346,-97.2370,0.0,2.0,143.0,2.4,'11111222,11111222,11111222' 
TCOON,ioos:station:TCOON:005:1,2017-05-01T08:36:00Z,27.6346,-97.2370,0.0,2.3,143.0,3.2,'11111222,11111222,11111222' 
TCOON,ioos:station:TCOON:005:1,2017-05-01T08:42:00Z,27.6346,-97.2370,0.0,2.2,139.0,3.1,'11111222,11111222,11111222' 
TCOON,ioos:station:TCOON:005:1,2017-05-01T08:48:00Z,27.6346,-97.2370,0.0,1.7,147.0,3.2,'11111222,11111222,11111222' 
TCOON,ioos:station:TCOON:005:1,2017-05-01T08:54:00Z,27.6346,-97.2370,0.0,2.4,141.0,3.4,'11111222,11111222,11111222' 
TCOON,ioos:station:TCOON:005:1,2017-05-01T09:00:00Z,27.6346,-97.2370,0.0,1.8,147.0,2.6,'11111222,11111222,11111222' 
TCOON,ioos:station:TCOON:005:1,2017-05-01T09:06:00Z,27.6346,-97.2370,0.0,2.4,135.0,3.3,'11111222,11111222,11111222' 
TCOON,ioos:station:TCOON:005:1,2017-05-01T09:12:00Z,27.6346,-97.2370,0.0,2.4,131.0,3.3,'11111222,11111222,11111222' 
TCOON,ioos:station:TCOON:005:1,2017-05-01T09:18:00Z,27.6346,-97.2370,0.0,2.1,130.0,3.0,'11111222,11111222,11111222' 
TCOON,ioos:station:TCOON:005:1,2017-05-01T09:24:00Z,27.6346,-97.2370,0.0,2.1,130.0,3.0,'1111122,1111122,1111122' 
TCOON,ioos:station:TCOON:005:1,2017-05-01T09:30:00Z,27.6346,-97.2370,0.0,2.7,138.0,3.7,'11111222,11111222,11111222' 
TCOON,ioos:station:TCOON:005:1,2017-05-01T09:36:00Z,27.6346,-97.2370,0.0,3.1,141.0,4.2,'11111222,11111222,11111222' 
TCOON,ioos:station:TCOON:005:1,2017-05-01T09:42:00Z,27.6346,-97.2370,0.0,3.1,138.0,4.1,'11111222,11111222,11111222' 
TCOON,ioos:station:TCOON:005:1,2017-05-01T09:48:00Z,27.6346,-97.2370,0.0,2.8,139.0,4.1,'11111222,11111222,11111222' 
TCOON,ioos:station:TCOON:005:1,2017-05-01T09:54:00Z,27.6346,-97.2370,0.0,3.0,140.0,4.8,'11111222,11111222,11111222' 
TCOON,ioos:station:TCOON:005:1,2017-05-01T10:00:00Z,27.6346,-97.2370,0.0,2.4,136.0,3.5,'11111222,11111222,11111222' 
TCOON,ioos:station:TCOON:005:1,2017-05-01T10:06:00Z,27.6346,-97.2370,0.0,2.7,142.0,3.9,'11111222,11111222,11111222' 
TCOON,ioos:station:TCOON:005:1,2017-05-01T10:12:00Z,27.6346,-97.2370,0.0,3.1,136.0,3.7,'11111222,11111222,11111222' 
TCOON,ioos:station:TCOON:005:1,2017-05-01T10:18:00Z,27.6346,-97.2370,0.0,3.0,142.0,4.6,'11111222,11111222,11111222' 
TCOON,ioos:station:TCOON:005:1,2017-05-01T10:24:00Z,27.6346,-97.2370,0.0,3.0,142.0,4.6,'1111122,1111122,1111122' 
TCOON,ioos:station:TCOON:005:1,2017-05-01T10:30:00Z,27.6346,-97.2370,0.0,2.8,143.0,5.0,'11111222,11111222,11111222' 
TCOON,ioos:station:TCOON:005:1,2017-05-01T10:36:00Z,27.6346,-97.2370,0.0,3.4,145.0,4.8,'11111222,11111222,11111222' 
TCOON,ioos:station:TCOON:005:1,2017-05-01T10:42:00Z,27.6346,-97.2370,0.0,3.3,137.0,4.5,'11111222,11111222,11111222' 
TCOON,ioos:station:TCOON:005:1,2017-05-01T10:48:00Z,27.6346,-97.2370,0.0,3.0,147.0,4.6,'11111222,11111222,11111222' 
TCOON,ioos:station:TCOON:005:1,2017-05-01T10:54:00Z,27.6346,-97.2370,0.0,3.1,142.0,4.6,'11111222,11111222,11111222' 
TCOON,ioos:station:TCOON:005:1,2017-05-01T11:00:00Z,27.6346,-97.2370,0.0,2.5,145.0,4.4,'11111222,11111222,11111222' 
TCOON,ioos:station:TCOON:005:1,2017-05-01T11:06:00Z,27.6346,-97.2370,0.0,2.8,145.0,3.5,'11111222,11111222,11111222' 
TCOON,ioos:station:TCOON:005:1,2017-05-01T11:12:00Z,27.6346,-97.2370,0.0,2.7,137.0,4.1,'11111222,11111222,11111222' 
TCOON,ioos:station:TCOON:005:1,2017-05-01T11:18:00Z,27.6346,-97.2370,0.0,2.7,147.0,4.1,'11111222,11111222,11111222' 
TCOON,ioos:station:TCOON:005:1,2017-05-01T11:24:00Z,27.6346,-97.2370,0.0,2.7,147.0,4.1,'1111122,1111122,1111122' 
TCOON,ioos:station:TCOON:005:1,2017-05-01T11:30:00Z,27.6346,-97.2370,0.0,4.2,144.0,5.5,'11111222,11111222,11111222' 
TCOON,ioos:station:TCOON:005:1,2017-05-01T11:36:00Z,27.6346,-97.2370,0.0,3.1,142.0,4.8,'11111222,11111222,11111222' 
TCOON,ioos:station:TCOON:005:1,2017-05-01T11:42:00Z,27.6346,-97.2370,0.0,3.4,141.0,4.5,'11111222,11111222,11111222' 
TCOON,ioos:station:TCOON:005:1,2017-05-01T11:48:00Z,27.6346,-97.2370,0.0,2.8,145.0,4.3,'11111222,11111222,11111222' 
TCOON,ioos:station:TCOON:005:1,2017-05-01T11:54:00Z,27.6346,-97.2370,0.0,3.2,146.0,4.7,'11111222,11111222,11111222' 
TCOON,ioos:station:TCOON:005:1,2017-05-01T12:00:00Z,27.6346,-97.2370,0.0,3.8,145.0,4.6,'11111222,11111222,11111222' 
TCOON,ioos:station:TCOON:005:1,2017-05-01T12:06:00Z,27.6346,-97.2370,0.0,3.5,158.0,4.7,'11111222,11111222,11111222' 
TCOON,ioos:station:TCOON:005:1,2017-05-01T12:12:00Z,27.6346,-97.2370,0.0,3.0,150.0,4.2,'11111222,11111222,11111222' 
TCOON,ioos:station:TCOON:005:1,2017-05-01T12:18:00Z,27.6346,-97.2370,0.0,3.5,150.0,5.1,'11111222,11111222,11111222' 
TCOON,ioos:station:TCOON:005:1,2017-05-01T12:24:00Z,27.6346,-97.2370,0.0,3.5,150.0,5.1,'1111122,1111122,1111122' 
TCOON,ioos:station:TCOON:005:1,2017-05-01T12:30:00Z,27.6346,-97.2370,0.0,3.8,154.0,5.0,'11111222,11111222,11111222' 
TCOON,ioos:station:TCOON:005:1,2017-05-01T12:36:00Z,27.6346,-97.2370,0.0,4.1,152.0,5.4,'11111222,11111222,11111222' 
TCOON,ioos:station:TCOON:005:1,2017-05-01T12:42:00Z,27.6346,-97.2370,0.0,3.8,157.0,4.7,'11111222,11111222,11111222' 
TCOON,ioos:station:TCOON:005:1,2017-05-01T12:48:00Z,27.6346,-97.2370,0.0,3.6,155.0,5.2,'11111222,11111222,11111222' 
TCOON,ioos:station:TCOON:005:1,2017-05-01T12:54:00Z,27.6346,-97.2370,0.0,3.8,153.0,5.4,'11111222,11111222,11111222' 
TCOON,ioos:station:TCOON:005:1,2017-05-01T13:00:00Z,27.6346,-97.2370,0.0,3.3,159.0,5.1,'11111222,11111222,11111222' 
TCOON,ioos:station:TCOON:005:1,2017-05-01T13:06:00Z,27.6346,-97.2370,0.0,3.8,160.0,5.2,'11111222,11111222,11111222' 
TCOON,ioos:station:TCOON:005:1,2017-05-01T13:12:00Z,27.6346,-97.2370,0.0,4.0,158.0,5.5,'11111222,11111222,11111222' 
TCOON,ioos:station:TCOON:005:1,2017-05-01T13:18:00Z,27.6346,-97.2370,0.0,4.0,158.0,5.5,'1111122,1111122,1111122' 
TCOON,ioos:station:TCOON:005:1,2017-05-01T13:24:00Z,27.6346,-97.2370,0.0,3.9,171.0,5.7,'11111222,11111222,11111222' 
TCOON,ioos:station:TCOON:005:1,2017-05-01T13:30:00Z,27.6346,-97.2370,0.0,4.0,167.0,5.6,'11111222,11111222,11111222' 
TCOON,ioos:station:TCOON:005:1,2017-05-01T13:36:00Z,27.6346,-97.2370,0.0,4.6,158.0,6.1,'11111222,11111222,11111222' 
TCOON,ioos:station:TCOON:005:1,2017-05-01T13:42:00Z,27.6346,-97.2370,0.0,5.1,163.0,6.3,'11111222,11111222,11111222' 
TCOON,ioos:station:TCOON:005:1,2017-05-01T13:48:00Z,27.6346,-97.2370,0.0,5.1,162.0,6.7,'11111222,11111222,11111222' 
TCOON,ioos:station:TCOON:005:1,2017-05-01T13:54:00Z,27.6346,-97.2370,0.0,3.7,165.0,6.2,'11111222,11111222,11111222' 
TCOON,ioos:station:TCOON:005:1,2017-05-01T14:00:00Z,27.6346,-97.2370,0.0,4.1,173.0,5.7,'11111222,11111222,11111222' 
TCOON,ioos:station:TCOON:005:1,2017-05-01T14:06:00Z,27.6346,-97.2370,0.0,3.7,164.0,5.1,'11111222,11111222,11111222' 
TCOON,ioos:station:TCOON:005:1,2017-05-01T14:12:00Z,27.6346,-97.2370,0.0,4.3,158.0,5.8,'11111222,11111222,11111222' 
TCOON,ioos:station:TCOON:005:1,2017-05-01T14:18:00Z,27.6346,-97.2370,0.0,4.3,158.0,5.8,'1111122,1111122,1111122' 
TCOON,ioos:station:TCOON:005:1,2017-05-01T14:24:00Z,27.6346,-97.2370,0.0,4.1,173.0,5.4,'11111222,11111222,11111222' 
TCOON,ioos:station:TCOON:005:1,2017-05-01T14:30:00Z,27.6346,-97.2370,0.0,4.0,171.0,5.9,'11111222,11111222,11111222' 
TCOON,ioos:station:TCOON:005:1,2017-05-01T14:36:00Z,27.6346,-97.2370,0.0,4.3,173.0,8.1,'11111222,11111222,11111222' 
TCOON,ioos:station:TCOON:005:1,2017-05-01T14:42:00Z,27.6346,-97.2370,0.0,5.1,162.0,6.4,'11111222,11111222,11111222' 
TCOON,ioos:station:TCOON:005:1,2017-05-01T14:48:00Z,27.6346,-97.2370,0.0,4.7,183.0,6.2,'11111222,11111222,11111222' 
TCOON,ioos:station:TCOON:005:1,2017-05-01T14:54:00Z,27.6346,-97.2370,0.0,4.2,157.0,6.0,'11111222,11111222,11111222' 
TCOON,ioos:station:TCOON:005:1,2017-05-01T15:00:00Z,27.6346,-97.2370,0.0,3.9,162.0,6.2,'11111222,11111222,11111222' 
TCOON,ioos:station:TCOON:005:1,2017-05-01T15:06:00Z,27.6346,-97.2370,0.0,4.0,176.0,6.0,'11111222,11111222,11111222' 
TCOON,ioos:station:TCOON:005:1,2017-05-01T15:12:00Z,27.6346,-97.2370,0.0,4.1,161.0,5.5,'11111222,11111222,11111222' 
TCOON,ioos:station:TCOON:005:1,2017-05-01T15:18:00Z,27.6346,-97.2370,0.0,4.1,161.0,5.5,'1111122,1111122,1111122' 
TCOON,ioos:station:TCOON:005:1,2017-05-01T15:24:00Z,27.6346,-97.2370,0.0,4.5,164.0,6.2,'11111222,11111222,11111222' 
TCOON,ioos:station:TCOON:005:1,2017-05-01T15:30:00Z,27.6346,-97.2370,0.0,5.3,144.0,6.4,'11111222,11111222,11111222' 
TCOON,ioos:station:TCOON:005:1,2017-05-01T15:36:00Z,27.6346,-97.2370,0.0,4.5,157.0,6.3,'11111222,11111222,11111222' 
TCOON,ioos:station:TCOON:005:1,2017-05-01T15:42:00Z,27.6346,-97.2370,0.0,4.7,159.0,6.4,'11111222,11111222,11111222' 
TCOON,ioos:station:TCOON:005:1,2017-05-01T15:48:00Z,27.6346,-97.2370,0.0,4.0,155.0,5.4,'11111222,11111222,11111222' 
TCOON,ioos:station:TCOON:005:1,2017-05-01T15:54:00Z,27.6346,-97.2370,0.0,4.4,157.0,6.2,'11111222,11111222,11111222' 
TCOON,ioos:station:TCOON:005:1,2017-05-01T16:00:00Z,27.6346,-97.2370,0.0,4.2,155.0,5.8,'11111222,11111222,11111222' 
TCOON,ioos:station:TCOON:005:1,2017-05-01T16:06:00Z,27.6346,-97.2370,0.0,3.8,159.0,5.3,'11111222,11111222,11111222' 
TCOON,ioos:station:TCOON:005:1,2017-05-01T16:12:00Z,27.6346,-97.2370,0.0,3.4,145.0,5.2,'11111222,11111222,11111222' 
TCOON,ioos:station:TCOON:005:1,2017-05-01T16:18:00Z,27.6346,-97.2370,0.0,3.4,145.0,5.2,'1111122,1111122,1111122' 
TCOON,ioos:station:TCOON:005:1,2017-05-01T16:24:00Z,27.6346,-97.2370,0.0,4.3,154.0,5.8,'11111222,11111222,11111222' 
TCOON,ioos:station:TCOON:005:1,2017-05-01T16:30:00Z,27.6346,-97.2370,0.0,4.4,142.0,6.3,'11111222,11111222,11111222' 
TCOON,ioos:station:TCOON:005:1,2017-05-01T16:36:00Z,27.6346,-97.2370,0.0,4.4,152.0,6.2,'11111222,11111222,11111222' 
TCOON,ioos:station:TCOON:005:1,2017-05-01T16:42:00Z,27.6346,-97.2370,0.0,3.4,138.0,6.3,'11111222,11111222,11111222' 
TCOON,ioos:station:TCOON:005:1,2017-05-01T16:48:00Z,27.6346,-97.2370,0.0,3.9,137.0,6.5,'11111222,11111222,11111222' 
TCOON,ioos:station:TCOON:005:1,2017-05-01T16:54:00Z,27.6346,-97.2370,0.0,2.8,148.0,5.4,'11111222,11111222,11111222' 
TCOON,ioos:station:TCOON:005:1,2017-05-01T17:00:00Z,27.6346,-97.2370,0.0,4.3,140.0,6.2,'11111222,11111222,11111222' 
TCOON,ioos:station:TCOON:005:1,2017-05-01T17:06:00Z,27.6346,-97.2370,0.0,4.5,140.0,6.3,'11111222,11111222,11111222' 
TCOON,ioos:station:TCOON:005:1,2017-05-01T17:12:00Z,27.6346,-97.2370,0.0,4.8,157.0,6.4,'11111222,11111222,11111222' 
TCOON,ioos:station:TCOON:005:1,2017-05-01T17:18:00Z,27.6346,-97.2370,0.0,4.8,157.0,6.4,'1111122,1111122,1111122' 
TCOON,ioos:station:TCOON:005:1,2017-05-01T17:24:00Z,27.6346,-97.2370,0.0,5.5,143.0,7.0,'11111222,11111222,11111222' 
TCOON,ioos:station:TCOON:005:1,2017-05-01T17:30:00Z,27.6346,-97.2370,0.0,4.6,138.0,6.4,'11111222,11111222,11111222' 
TCOON,ioos:station:TCOON:005:1,2017-05-01T17:36:00Z,27.6346,-97.2370,0.0,5.1,144.0,6.5,'11111222,11111222,11111222' 
TCOON,ioos:station:TCOON:005:1,2017-05-01T17:42:00Z,27.6346,-97.2370,0.0,5.4,146.0,7.1,'11111222,11111222,11111222' 
TCOON,ioos:station:TCOON:005:1,2017-05-01T17:48:00Z,27.6346,-97.2370,0.0,4.5,154.0,5.8,'11111222,11111222,11111222' 
TCOON,ioos:station:TCOON:005:1,2017-05-01T17:54:00Z,27.6346,-97.2370,0.0,4.1,150.0,6.6,'11111222,11111222,11111222' 
TCOON,ioos:station:TCOON:005:1,2017-05-01T18:00:00Z,27.6346,-97.2370,0.0,5.4,140.0,7.3,'11111222,11111222,11111222' 
TCOON,ioos:station:TCOON:005:1,2017-05-01T18:06:00Z,27.6346,-97.2370,0.0,5.1,134.0,7.6,'11111222,11111222,11111222' 
TCOON,ioos:station:TCOON:005:1,2017-05-01T18:12:00Z,27.6346,-97.2370,0.0,5.0,137.0,6.4,'11111222,11111222,11111222' 
TCOON,ioos:station:TCOON:005:1,2017-05-01T18:18:00Z,27.6346,-97.2370,0.0,5.0,137.0,6.4,'1111122,1111122,1111122' 
TCOON,ioos:station:TCOON:005:1,2017-05-01T18:24:00Z,27.6346,-97.2370,0.0,4.9,138.0,6.5,'11111222,11111222,11111222' 
TCOON,ioos:station:TCOON:005:1,2017-05-01T18:30:00Z,27.6346,-97.2370,0.0,4.1,174.0,5.3,'11111222,11111222,11111222' 
TCOON,ioos:station:TCOON:005:1,2017-05-01T18:36:00Z,27.6346,-97.2370,0.0,3.8,141.0,6.4,'11111222,11111222,11111222' 
TCOON,ioos:station:TCOON:005:1,2017-05-01T18:42:00Z,27.6346,-97.2370,0.0,5.5,147.0,6.7,'11111222,11111222,11111222' 
TCOON,ioos:station:TCOON:005:1,2017-05-01T18:48:00Z,27.6346,-97.2370,0.0,4.6,148.0,6.3,'11111222,11111222,11111222' 
TCOON,ioos:station:TCOON:005:1,2017-05-01T18:54:00Z,27.6346,-97.2370,0.0,4.6,146.0,6.3,'11111222,11111222,11111222' 
TCOON,ioos:station:TCOON:005:1,2017-05-01T19:00:00Z,27.6346,-97.2370,0.0,4.1,152.0,6.4,'11111222,11111222,11111222' 
TCOON,ioos:station:TCOON:005:1,2017-05-01T19:06:00Z,27.6346,-97.2370,0.0,5.1,146.0,6.7,'11111222,11111222,11111222' 
TCOON,ioos:station:TCOON:005:1,2017-05-01T19:12:00Z,27.6346,-97.2370,0.0,4.3,134.0,5.6,'11111222,11111222,11111222' 
TCOON,ioos:station:TCOON:005:1,2017-05-01T19:18:00Z,27.6346,-97.2370,0.0,4.3,134.0,5.6,'1111122,1111122,1111122' 
TCOON,ioos:station:TCOON:005:1,2017-05-01T19:24:00Z,27.6346,-97.2370,0.0,5.0,148.0,6.4,'11111222,11111222,11111222' 
TCOON,ioos:station:TCOON:005:1,2017-05-01T19:30:00Z,27.6346,-97.2370,0.0,4.2,147.0,6.1,'11111222,11111222,11111222' 
TCOON,ioos:station:TCOON:005:1,2017-05-01T19:36:00Z,27.6346,-97.2370,0.0,5.3,145.0,6.6,'11111222,11111222,11111222' 
TCOON,ioos:station:TCOON:005:1,2017-05-01T19:42:00Z,27.6346,-97.2370,0.0,5.6,131.0,7.4,'11111222,11111222,11111222' 
TCOON,ioos:station:TCOON:005:1,2017-05-01T19:48:00Z,27.6346,-97.2370,0.0,5.3,135.0,7.4,'11111222,11111222,11111222' 
TCOON,ioos:station:TCOON:005:1,2017-05-01T19:54:00Z,27.6346,-97.2370,0.0,4.2,144.0,7.0,'11111222,11111222,11111222' 
TCOON,ioos:station:TCOON:005:1,2017-05-01T20:00:00Z,27.6346,-97.2370,0.0,5.4,136.0,7.4,'11111222,11111222,11111222' 
TCOON,ioos:station:TCOON:005:1,2017-05-01T20:06:00Z,27.6346,-97.2370,0.0,5.7,142.0,7.4,'11111222,11111222,11111222' 
TCOON,ioos:station:TCOON:005:1,2017-05-01T20:12:00Z,27.6346,-97.2370,0.0,5.5,140.0,6.8,'11111222,11111222,11111222' 
TCOON,ioos:station:TCOON:005:1,2017-05-01T20:18:00Z,27.6346,-97.2370,0.0,5.5,140.0,6.8,'1111122,1111122,1111122' 